Morris, IL

4:34 PM CDT on October 21, 2017 (GMT -0500)
Morris

Weather History for KC09 - December, 2013

Change the Weather History Date:

Friday, December 20, 2013

  Actual Average (KARR) Record (KARR)
Temperature  
Mean Temperature - -  
Max Temperature - 29 °F 51 °F (2015)
Min Temperature - 14 °F -11 °F (2000)
Moisture  
Dew Point -    
Average Humidity    
Maximum Humidity    
Minimum Humidity    
Precipitation  
Precipitation 0.18 in - - ()
Sea Level Pressure  
Sea Level Pressure 29.76 in    
Wind  
Wind Speed 4 mph (North)    
Max Wind Speed 10 mph    
Max Gust Speed -    
Visibility 2 miles    
Events Fog , Rain    
Averages and records for this station are not official NWS values.
T = Trace of Precipitation, MM = Missing Value Source: NWS Daily Summary

Daily Weather History Graph

Daily Weather History Graph

Search for Another Location

Airport or City:

Trip Planner

Search our weather history database for the weather conditions in past years. The results will help you decide how hot, cold, wet, or windy it might be!

Date:

Astronomy

Dec. 20, 2013 Rise Set
Actual Time 7:16 AM CST 4:26 PM CST
Civil Twilight 6:44 AM CST 4:58 PM CST
Nautical Twilight 6:09 AM CST 5:33 PM CST
Astronomical Twilight 5:36 AM CST 6:06 PM CST
Moon 7:49 PM CST (12/20) 9:08 AM CST (12/20)
Length of Visible Light 10h 13m
Length of Day
9h 10m
Waning Gibbous, 90% of the Moon is Illuminated
Dec 20
Waning Gibbous
Dec 25
Last Quarter
Jan 1
New
Jan 7
First Quarter
Jan 15
Full

Hourly Weather History & Observations

Time (CST) Temp. Dew Point Humidity Pressure Visibility Wind Dir Wind Speed Gust Speed Precip Events Conditions
12:15 AM - - N/A% 29.76 in 1.0 mi NE 4.6 mph - 0.01 in   Drizzle
12:35 AM - - N/A% 29.76 in 0.8 mi NE 3.5 mph - 0.01 in   Drizzle
12:55 AM - - N/A% 29.75 in 0.5 mi NNE 3.5 mph - 0.01 in   Light Drizzle
1:15 AM - - N/A% 29.75 in 0.5 mi NNE 4.6 mph - N/A Fog Fog
1:35 AM - - N/A% 29.76 in 0.5 mi Calm Calm - N/A   Light Drizzle
1:55 AM - - N/A% 29.74 in 0.8 mi NE 4.6 mph - 0.01 in   Light Drizzle
2:15 AM - - N/A% 29.75 in 0.5 mi NNE 3.5 mph - N/A   Light Drizzle
2:35 AM - - N/A% 29.75 in 0.8 mi NNE 4.6 mph - N/A Rain Light Rain
2:55 AM - - N/A% 29.75 in 0.5 mi North 4.6 mph - N/A Rain Rain
3:15 AM - - N/A% 29.75 in 0.5 mi North 5.8 mph - N/A   Drizzle
3:35 AM - - N/A% 29.75 in 0.8 mi NNE 5.8 mph - 0.01 in Rain Heavy Rain
3:55 AM - - N/A% 29.75 in 1.2 mi NNE 5.8 mph - 0.02 in   Drizzle
4:15 AM - - N/A% 29.75 in 1.2 mi NNE 5.8 mph - 0.01 in   Heavy Drizzle
4:35 AM - - N/A% 29.75 in 1.8 mi NNE 5.8 mph - 0.01 in   Drizzle
4:55 AM - - N/A% 29.76 in 2.0 mi NNE 5.8 mph - 0.03 in   Drizzle
5:15 AM - - N/A% 29.76 in 2.5 mi NNE 5.8 mph - N/A   Drizzle
5:35 AM - - N/A% 29.75 in 3.0 mi NE 3.5 mph - N/A   Overcast
5:55 AM - - N/A% 29.75 in 2.0 mi NNE 4.6 mph - N/A   Light Drizzle
6:15 AM - - N/A% 29.76 in 1.8 mi Calm Calm - N/A   Overcast
6:35 AM - - N/A% 29.77 in 1.8 mi NNE 4.6 mph - N/A   Overcast
6:55 AM - - N/A% 29.77 in 1.2 mi NNE 4.6 mph - 0.01 in   Light Drizzle
7:15 AM - - N/A% 29.77 in 1.2 mi NNE 5.8 mph - N/A   Light Drizzle
7:35 AM - - N/A% 29.76 in 1.0 mi NE 4.6 mph - N/A Rain Rain
7:55 AM - - N/A% 29.77 in 1.0 mi NE 4.6 mph - N/A   Overcast
8:15 AM - - N/A% 29.77 in 1.0 mi NE 4.6 mph - N/A   Light Drizzle
8:35 AM - - N/A% 29.78 in 1.2 mi NE 3.5 mph - N/A   Overcast
8:55 AM - - N/A% 29.78 in 1.0 mi NE 5.8 mph - 0.02 in Rain Light Rain
9:15 AM - - N/A% 29.78 in 2.0 mi NE 5.8 mph - 0.01 in Rain Rain
9:35 AM - - N/A% 29.78 in 1.5 mi NE 4.6 mph - 0.01 in   Light Drizzle
9:55 AM - - N/A% 29.78 in 1.8 mi NE 3.5 mph - 0.01 in Rain Rain
10:15 AM - - N/A% 29.78 in 2.5 mi NE 4.6 mph - 0.01 in   Drizzle
10:35 AM - - N/A% 29.78 in 1.0 mi Calm Calm - 0.02 in Rain Rain
10:55 AM - - N/A% 29.78 in 2.5 mi Calm Calm - 0.02 in   Light Drizzle
11:15 AM - - N/A% 29.76 in 2.5 mi Calm Calm - N/A   Overcast
11:35 AM - - N/A% 29.76 in 1.5 mi NE 3.5 mph - N/A   Overcast
11:55 AM - - N/A% 29.74 in 1.5 mi NE 3.5 mph - N/A   Overcast
12:15 PM - - N/A% 29.74 in 1.2 mi Calm Calm - 0.01 in Rain Heavy Rain
12:35 PM - - N/A% 29.75 in 1.2 mi Calm Calm - 0.03 in Rain Light Rain
12:55 PM - - N/A% 29.73 in 1.5 mi Calm Calm - 0.04 in Rain Rain
1:15 PM - - N/A% 29.74 in 1.5 mi Calm Calm - N/A   Light Drizzle
1:35 PM - - N/A% 29.73 in 1.2 mi Calm Calm - N/A   Light Drizzle
1:55 PM - - N/A% 29.71 in 1.2 mi Calm Calm - N/A   Overcast
2:15 PM - - N/A% 29.73 in 1.8 mi Calm Calm - N/A   Overcast
2:35 PM - - N/A% 29.73 in 2.0 mi Calm Calm - N/A   Overcast
2:55 PM - - N/A% 29.73 in 2.0 mi NNE 4.6 mph - N/A   Overcast
3:15 PM - - N/A% 29.75 in 1.5 mi Calm Calm - N/A   Overcast
3:35 PM - - N/A% 29.74 in 1.2 mi NNE 3.5 mph - N/A   Overcast
3:55 PM - - N/A% 29.74 in 1.0 mi Calm Calm - 0.01 in Rain Light Rain
4:15 PM - - N/A% 29.74 in 1.2 mi Calm Calm - N/A   Overcast
4:35 PM - - N/A% 29.73 in 1.8 mi North 3.5 mph - N/A   Overcast
4:55 PM - - N/A% 29.75 in 2.5 mi NNE 3.5 mph - N/A   Overcast
5:15 PM - - N/A% 29.74 in 2.0 mi North 3.5 mph - N/A   Overcast
5:35 PM - - N/A% 29.76 in 2.0 mi Calm Calm - N/A   Overcast
5:55 PM - - N/A% 29.76 in 1.5 mi Calm Calm - N/A   Overcast
6:15 PM - - N/A% 29.76 in 1.2 mi NW 3.5 mph - N/A   Overcast
6:35 PM - - N/A% 29.78 in 1.0 mi NW 5.8 mph - N/A   Overcast
6:55 PM - - N/A% 29.78 in 0.8 mi NW 4.6 mph - N/A   Overcast
7:15 PM - - N/A% 29.78 in 1.0 mi NW 4.6 mph - N/A   Overcast
7:35 PM - - N/A% 29.80 in 1.2 mi NW 6.9 mph - N/A   Overcast
7:55 PM - - N/A% 29.79 in 1.5 mi NW 5.8 mph - N/A   Overcast
8:15 PM - - N/A% 29.80 in 2.0 mi NW 5.8 mph - N/A   Overcast
8:35 PM - - N/A% 29.80 in 3.0 mi NW 5.8 mph - N/A   Overcast
8:55 PM - - N/A% 29.80 in 4.0 mi NW 4.6 mph - N/A   Haze
9:15 PM - - N/A% 29.80 in 4.0 mi NW 4.6 mph - N/A   Haze
9:35 PM - - N/A% 29.80 in 5.0 mi WNW 4.6 mph - N/A   Haze
9:55 PM - - N/A% 29.80 in 5.0 mi West 9.2 mph - N/A   Haze
10:15 PM - - N/A% 29.79 in 3.0 mi WNW 10.4 mph - N/A   Overcast
10:35 PM - - N/A% 29.80 in 3.0 mi WNW 8.1 mph - N/A   Overcast
10:55 PM - - N/A% 29.79 in 2.5 mi WNW 9.2 mph - N/A   Overcast
11:15 PM - - N/A% 29.80 in 3.0 mi West 9.2 mph - N/A   Overcast
11:35 PM - - N/A% 29.81 in 4.0 mi West 8.1 mph - N/A   Haze
11:55 PM - - N/A% 29.80 in 3.0 mi West 5.8 mph - N/A   Overcast